Flag for U.S.A. Weather past 2 weeks in Inglewood, California, U.S.A.

Now
53 °F

Fog.


Feels Like: 53 °F
Forecast: 52 / 72 °F
Wind: No wind

Location: Hawthorne Municipal Airport

Current Time: Feb 1, 2015 at 4:25:06 AM

Latest Report: Feb 1, 2015 at 3:53 AM


Visibility: 6 mi

Pressure: 30.02 "Hg

Humidity: 89%

Dew point: 50 °F

Location of InglewoodLocation

Historic Weather in Inglewood — Graph

°F

Inglewood temperature yesterday

Maximum temperature yesterday: 69 °F (at 12:53 PM)
Minimum temperature yesterday: 58 °F (at 4:53 AM)
Average temperature yesterday: 62 °F

Past Weeks' High & Low Weather Summary

 TemperatureHumidityPressure
High83 °F (Jan 25, 12:53 PM)100% (Jan 20, 4:53 AM)30.25 "Hg (Jan 20, 4:53 AM)
Low50 °F (Jan 22, 4:53 AM)8% (Jan 22, 12:53 PM)29.83 "Hg (Jan 31, 3:53 AM)
Average63 °F59%30.06 "Hg
* Reported Jan 17 2:53 AM — Feb 1 2:53 AM, Inglewood, Weather by CustomWeather, © 2014

Note: Actual official high and low records may vary slightly from our data, if they occured in-between our weather recording intervals... More about our weather records

Advertising

Inglewood weather history for previous 24 hours

 ConditionsComfort  
Time TempWeatherWind HumidityBarometerVisibility
2:53 AM
Feb 1
55 °FClear.No wind87%30.01 "Hg8 mi
1:53 AM56 °FClear.No wind87%30.01 "Hg7 mi
12:53 AM57 °FClear.No wind87%30.00 "Hg9 mi
11:53 PM
Jan 31
58 °FClear.No wind87%30.00 "Hg9 mi
10:53 PM59 °FClear.3 mph84%29.99 "Hg9 mi
9:53 PM60 °FClear.5 mph83%29.98 "Hg10 mi
8:53 PM61 °FClear.No wind83%29.97 "Hg10 mi
7:53 PM62 °FClear.No wind80%29.96 "Hg10 mi
6:53 PM62 °FClear.7 mph75%29.94 "Hg10 mi
5:53 PM63 °FClear.7 mph73%29.93 "Hg10 mi
4:53 PM64 °FSunny.10 mph70%29.90 "Hg10 mi
3:53 PM65 °FSunny.9 mph70%29.90 "Hg10 mi
2:53 PM66 °FSunny.10 mph68%29.89 "Hg10 mi
1:53 PM68 °FSunny.12 mph61%29.88 "Hg10 mi
12:53 PM69 °FPassing clouds.8 mph59%29.88 "Hg10 mi
11:53 AM67 °FSunny.5 mph57%29.90 "Hg2 mi
10:53 AM65 °FPartly sunny.No wind66%29.93 "Hg10 mi
9:53 AM63 °FPartly sunny.No wind73%29.92 "Hg10 mi
8:53 AM62 °FSunny.No wind78%29.91 "Hg10 mi
7:53 AM59 °FPassing clouds.No wind87%29.89 "Hg7 mi
6:53 AM58 °FFog.No wind90%29.87 "Hg6 mi
5:53 AM58 °FFog.No wind90%29.86 "Hg6 mi
5:03 AM58 °FFog.No wind93%29.85 "Hg6 mi
4:53 AM58 °FFog.No wind90%29.84 "Hg6 mi
Weather by CustomWeather, © 2014

See weather overviewHow to use our weather pages